sat.trackr.live / text

‹ back to catalog

STARLINK-30828

NORAD 58671 · 2023-211E

PAYLOAD ACTIVE UNKNOWN

§ Identity

Operator
Country
US
Launch date
2023-12-29
Launch site
AFETR
Launch vehicle
Mass (kg)
RCS (m²)

Purposes: comms

External: N2YO · Heavens-Above · Gunter

§ Orbital elements

Epoch: 2026-05-24T23:50:31.324704Z

Period
94.27 min
Inclination
43.0015°
Eccentricity
0.0001235
Mean motion
15.27574951 rev/d
Perigee alt
482.2 km
Apogee alt
483.9 km
Semi-major
6,861.2 km
B*
2.3292e-5
RAAN
14.4118°
Arg perigee
276.0063°
Mean anomaly
84.0648°
Rev number
13,413

§ Raw data

STARLINK-308281 58671U 23211E   26144.99341811  .00000379  00000+0  23292-4 0  99992 58671  43.0015  14.4118 0001235 276.0063  84.0648 15.27574951134134

JSON: /api/v1/satellites/58671 · /tle

For live sub-satellite position, see the globe view (requires WebGL).

§ Visibility from observer

Set your observer location to see the next 7 days of passes ≥ 10°. The values pass through the URL so the page stays shareable.

No JS? Fill the form by hand. The geolocation button needs JavaScript.